Time,TemperatureF,DewpointF,PressureIn,WindDirection,WindDirectionDegrees,WindSpeedMPH,WindSpeedGustMPH,Humidity,HourlyPrecipIn,Conditions,Clouds,dailyrainin,SoftwareType,DateUTC
2013-07-15 00:08:00,71.3,64.0,30.18,SSE,148,5.0,6.0,77,0.00,,,0.00,weatherlink.com 1.10,2013-07-15 04:08:00,
2013-07-15 00:23:00,72.9,64.0,30.18,SSE,148,2.0,4.0,74,0.00,,,0.00,weatherlink.com 1.10,2013-07-15 04:23:00,
2013-07-15 00:38:00,72.1,65.0,30.18,SSE,148,3.0,4.0,77,0.00,,,0.00,weatherlink.com 1.10,2013-07-15 04:38:00,
2013-07-15 00:53:00,73.0,65.0,30.18,SSE,148,3.0,5.0,76,0.00,,,0.00,weatherlink.com 1.10,2013-07-15 04:53:00,
2013-07-15 01:08:00,73.0,65.0,30.17,South,185,0.0,6.0,76,0.00,,,0.00,weatherlink.com 1.10,2013-07-15 05:08:00,
2013-07-15 01:23:00,70.6,64.0,30.18,South,185,0.0,1.0,80,0.00,,,0.00,weatherlink.com 1.10,2013-07-15 05:23:00,
2013-07-15 01:38:00,71.2,64.0,30.18,South,185,0.0,1.0,79,0.00,,,0.00,weatherlink.com 1.10,2013-07-15 05:38:00,
2013-07-15 01:53:00,71.1,65.0,30.18,South,185,0.0,2.0,80,0.00,,,0.00,weatherlink.com 1.10,2013-07-15 05:53:00,
2013-07-15 02:08:00,70.7,65.0,30.18,South,185,1.0,3.0,81,0.00,,,0.00,weatherlink.com 1.10,2013-07-15 06:08:00,
2013-07-15 02:23:00,70.9,64.0,30.17,South,185,0.0,2.0,80,0.00,,,0.00,weatherlink.com 1.10,2013-07-15 06:23:00,
2013-07-15 02:38:00,69.7,64.0,30.17,South,185,2.0,3.0,83,0.00,,,0.00,weatherlink.com 1.10,2013-07-15 06:38:00,
2013-07-15 02:53:00,69.9,65.0,30.18,South,185,0.0,2.0,83,0.00,,,0.00,weatherlink.com 1.10,2013-07-15 06:53:00,
2013-07-15 03:08:00,69.0,64.0,30.18,South,185,0.0,2.0,84,0.00,,,0.00,weatherlink.com 1.10,2013-07-15 07:08:00,
2013-07-15 03:23:00,68.8,64.0,30.18,South,185,0.0,0.0,85,0.00,,,0.00,weatherlink.com 1.10,2013-07-15 07:23:00,
2013-07-15 03:38:00,68.7,64.0,30.18,South,185,0.0,2.0,85,0.00,,,0.00,weatherlink.com 1.10,2013-07-15 07:38:00,
2013-07-15 03:53:00,68.6,64.0,30.18,South,185,0.0,1.0,85,0.00,,,0.00,weatherlink.com 1.10,2013-07-15 07:53:00,
2013-07-15 04:08:00,68.8,64.0,30.18,South,185,3.0,3.0,85,0.00,,,0.00,weatherlink.com 1.10,2013-07-15 08:08:00,
2013-07-15 04:23:00,69.5,65.0,30.18,South,185,3.0,4.0,84,0.00,,,0.00,weatherlink.com 1.10,2013-07-15 08:23:00,
2013-07-15 04:38:00,69.6,64.0,30.18,South,185,1.0,3.0,83,0.00,,,0.00,weatherlink.com 1.10,2013-07-15 08:38:00,
2013-07-15 04:53:00,70.2,64.0,30.18,South,185,2.0,3.0,81,0.00,,,0.00,weatherlink.com 1.10,2013-07-15 08:53:00,
2013-07-15 05:08:00,67.6,64.0,30.19,South,185,0.0,3.0,89,0.00,,,0.00,weatherlink.com 1.10,2013-07-15 09:08:00,
2013-07-15 05:23:00,67.6,65.0,30.19,South,185,0.0,1.0,90,0.00,,,0.00,weatherlink.com 1.10,2013-07-15 09:23:00,
2013-07-15 05:38:00,67.9,64.0,30.19,South,185,0.0,2.0,88,0.00,,,0.00,weatherlink.com 1.10,2013-07-15 09:38:00,
2013-07-15 05:53:00,67.7,64.0,30.20,South,185,0.0,1.0,87,0.00,,,0.00,weatherlink.com 1.10,2013-07-15 09:53:00,
2013-07-15 06:08:00,67.9,64.0,30.20,South,185,0.0,2.0,87,0.00,,,0.00,weatherlink.com 1.10,2013-07-15 10:08:00,
2013-07-15 06:23:00,68.4,64.0,30.20,South,185,0.0,3.0,85,0.00,,,0.00,weatherlink.com 1.10,2013-07-15 10:23:00,
2013-07-15 06:38:00,69.1,63.0,30.20,South,185,2.0,3.0,82,0.00,,,0.00,weatherlink.com 1.10,2013-07-15 10:38:00,
2013-07-15 06:53:00,68.3,64.0,30.21,South,185,4.0,4.0,86,0.00,,,0.00,weatherlink.com 1.10,2013-07-15 10:53:00,
2013-07-15 07:08:00,68.6,65.0,30.21,South,184,2.0,2.0,87,0.00,,,0.00,weatherlink.com 1.10,2013-07-15 11:08:00,
2013-07-15 07:23:00,70.4,65.0,30.21,South,185,1.0,3.0,82,0.00,,,0.00,weatherlink.com 1.10,2013-07-15 11:23:00,
2013-07-15 07:38:00,70.7,64.0,30.21,North,355,1.0,6.0,80,0.00,,,0.00,weatherlink.com 1.10,2013-07-15 11:38:00,
2013-07-15 07:53:00,71.0,66.0,30.22,North,355,1.0,4.0,83,0.00,,,0.00,weatherlink.com 1.10,2013-07-15 11:53:00,
2013-07-15 08:08:00,72.1,66.0,30.22,North,355,0.0,2.0,81,0.00,,,0.00,weatherlink.com 1.10,2013-07-15 12:08:00,
2013-07-15 08:23:00,73.3,66.0,30.22,North,355,2.0,4.0,79,0.00,,,0.00,weatherlink.com 1.10,2013-07-15 12:23:00,
2013-07-15 08:39:00,75.0,67.0,30.23,WSW,254,1.0,2.0,76,0.00,,,0.00,weatherlink.com 1.10,2013-07-15 12:39:00,
2013-07-15 08:54:00,76.8,68.0,30.23,WSW,254,0.0,3.0,75,0.00,,,0.00,weatherlink.com 1.10,2013-07-15 12:54:00,
2013-07-15 09:09:00,77.6,68.0,30.23,WSW,250,1.0,5.0,71,0.00,,,0.00,weatherlink.com 1.10,2013-07-15 13:09:00,
2013-07-15 09:24:00,79.1,69.0,30.23,WSW,250,1.0,2.0,72,0.00,,,0.00,weatherlink.com 1.10,2013-07-15 13:24:00,
2013-07-15 09:39:00,79.1,68.0,30.23,WSW,250,4.0,5.0,69,0.00,,,0.00,weatherlink.com 1.10,2013-07-15 13:39:00,
2013-07-15 09:54:00,80.0,69.0,30.23,WNW,284,2.0,6.0,68,0.00,,,0.00,weatherlink.com 1.10,2013-07-15 13:54:00,
2013-07-15 10:09:00,79.5,67.0,30.23,NW,308,3.0,8.0,66,0.00,,,0.00,weatherlink.com 1.10,2013-07-15 14:09:00,
2013-07-15 10:24:00,79.8,67.0,30.23,NNW,346,6.0,8.0,65,0.00,,,0.00,weatherlink.com 1.10,2013-07-15 14:24:00,
2013-07-15 10:39:00,79.7,67.0,30.23,NW,323,8.0,9.0,66,0.00,,,0.00,weatherlink.com 1.10,2013-07-15 14:39:00,
2013-07-15 10:54:00,79.4,66.0,30.23,North,355,7.0,9.0,64,0.00,,,0.00,weatherlink.com 1.10,2013-07-15 14:54:00,
2013-07-15 11:09:00,79.8,67.0,30.23,North,360,6.0,8.0,65,0.00,,,0.00,weatherlink.com 1.10,2013-07-15 15:09:00,
2013-07-15 11:24:00,79.9,67.0,30.23,WNW,292,5.0,9.0,64,0.00,,,0.00,weatherlink.com 1.10,2013-07-15 15:24:00,
2013-07-15 11:39:00,80.3,66.0,30.23,NNW,329,9.0,11.0,62,0.00,,,0.00,weatherlink.com 1.10,2013-07-15 15:39:00,
2013-07-15 11:54:00,80.4,66.0,30.23,WNW,301,5.0,8.0,62,0.00,,,0.00,weatherlink.com 1.10,2013-07-15 15:54:00,
2013-07-15 12:09:00,80.9,66.0,30.23,NNW,340,7.0,9.0,61,0.00,,,0.00,weatherlink.com 1.10,2013-07-15 16:09:00,
2013-07-15 12:24:00,81.6,66.0,30.23,NNW,327,4.0,9.0,59,0.00,,,0.00,weatherlink.com 1.10,2013-07-15 16:24:00,
2013-07-15 12:39:00,82.0,66.0,30.23,NNW,327,7.0,11.0,58,0.00,,,0.00,weatherlink.com 1.10,2013-07-15 16:39:00,
2013-07-15 12:54:00,80.3,65.0,30.23,NNW,339,8.0,12.0,60,0.00,,,0.00,weatherlink.com 1.10,2013-07-15 16:54:00,
2013-07-15 13:09:00,80.9,66.0,30.23,NW,315,8.0,10.0,60,0.00,,,0.00,weatherlink.com 1.10,2013-07-15 17:09:00,
2013-07-15 13:24:00,81.0,65.0,30.23,NNW,327,7.0,10.0,59,0.00,,,0.00,weatherlink.com 1.10,2013-07-15 17:24:00,
2013-07-15 13:39:00,81.1,64.0,30.23,NW,323,9.0,11.0,57,0.00,,,0.00,weatherlink.com 1.10,2013-07-15 17:39:00,
2013-07-15 13:54:00,82.5,66.0,30.22,NW,325,5.0,10.0,58,0.00,,,0.00,weatherlink.com 1.10,2013-07-15 17:54:00,
2013-07-15 14:24:00,81.7,65.0,30.22,NNW,328,5.0,10.0,57,0.00,,,0.00,weatherlink.com 1.10,2013-07-15 18:24:00,
2013-07-15 14:54:00,81.6,66.0,30.22,North,355,7.0,10.0,59,0.00,,,0.00,weatherlink.com 1.10,2013-07-15 18:54:00,
2013-07-15 15:09:00,81.3,66.0,30.22,NNW,346,7.0,10.0,59,0.00,,,0.00,weatherlink.com 1.10,2013-07-15 19:09:00,
2013-07-15 15:24:00,81.5,66.0,30.21,NNW,330,7.0,11.0,59,0.00,,,0.00,weatherlink.com 1.10,2013-07-15 19:24:00,
2013-07-15 15:39:00,81.8,65.0,30.21,NNW,335,8.0,9.0,58,0.00,,,0.00,weatherlink.com 1.10,2013-07-15 19:39:00,
2013-07-15 15:54:00,81.7,66.0,30.21,NNW,346,8.0,10.0,59,0.00,,,0.00,weatherlink.com 1.10,2013-07-15 19:54:00,
2013-07-15 16:09:00,82.1,66.0,30.20,NNW,343,5.0,8.0,58,0.00,,,0.00,weatherlink.com 1.10,2013-07-15 20:09:00,
2013-07-15 16:24:00,83.1,66.0,30.20,North,5,3.0,8.0,57,0.00,,,0.00,weatherlink.com 1.10,2013-07-15 20:24:00,
2013-07-15 16:39:00,83.6,67.0,30.20,WNW,303,5.0,8.0,58,0.00,,,0.00,weatherlink.com 1.10,2013-07-15 20:39:00,
2013-07-15 16:54:00,84.1,67.0,30.20,NW,323,8.0,10.0,57,0.00,,,0.00,weatherlink.com 1.10,2013-07-15 20:54:00,
2013-07-15 17:09:00,84.5,68.0,30.19,NNW,348,6.0,10.0,57,0.00,,,0.00,weatherlink.com 1.10,2013-07-15 21:09:00,
2013-07-15 17:24:00,84.1,68.0,30.19,NNW,345,9.0,11.0,58,0.00,,,0.00,weatherlink.com 1.10,2013-07-15 21:24:00,
2013-07-15 17:54:00,83.1,68.0,30.18,NNW,331,8.0,9.0,60,0.00,,,0.00,weatherlink.com 1.10,2013-07-15 21:54:00,
2013-07-15 18:09:00,83.2,68.0,30.18,NNW,340,6.0,9.0,61,0.00,,,0.00,weatherlink.com 1.10,2013-07-15 22:09:00,
2013-07-15 18:24:00,83.0,67.0,30.17,NNW,333,6.0,8.0,59,0.00,,,0.00,weatherlink.com 1.10,2013-07-15 22:24:00,
2013-07-15 18:39:00,82.7,68.0,30.17,NNW,333,5.0,8.0,61,0.00,,,0.00,weatherlink.com 1.10,2013-07-15 22:39:00,
2013-07-15 18:54:00,83.1,68.0,30.17,NW,317,3.0,6.0,61,0.00,,,0.00,weatherlink.com 1.10,2013-07-15 22:54:00,
2013-07-15 19:54:00,82.0,68.0,30.16,NW,323,2.0,3.0,63,0.00,,,0.00,weatherlink.com 1.10,2013-07-15 23:54:00,
2013-07-15 20:09:00,82.3,68.0,30.16,NW,323,2.0,3.0,62,0.00,,,0.00,weatherlink.com 1.10,2013-07-16 00:09:00,
2013-07-15 20:24:00,82.9,69.0,30.16,NW,323,0.0,2.0,64,0.00,,,0.00,weatherlink.com 1.10,2013-07-16 00:24:00,
2013-07-15 20:39:00,82.4,69.0,30.16,North,355,3.0,5.0,65,0.00,,,0.00,weatherlink.com 1.10,2013-07-16 00:39:00,
2013-07-15 20:54:00,78.0,70.0,30.16,NE,40,1.0,5.0,77,0.00,,,0.00,weatherlink.com 1.10,2013-07-16 00:54:00,
2013-07-15 21:09:00,75.7,70.0,30.16,NE,40,1.0,2.0,82,0.00,,,0.00,weatherlink.com 1.10,2013-07-16 01:09:00,
2013-07-15 21:24:00,75.1,69.0,30.16,NE,40,4.0,4.0,82,0.00,,,0.00,weatherlink.com 1.10,2013-07-16 01:24:00,
2013-07-15 21:54:00,74.2,69.0,30.16,NE,49,2.0,3.0,83,0.00,,,0.00,weatherlink.com 1.10,2013-07-16 01:54:00,
2013-07-15 22:09:00,74.9,68.0,30.17,NE,49,0.0,2.0,80,0.00,,,0.00,weatherlink.com 1.10,2013-07-16 02:09:00,
2013-07-15 22:54:00,73.1,67.0,30.19,NE,49,2.0,3.0,82,0.00,,,0.00,weatherlink.com 1.10,2013-07-16 02:54:00,
2013-07-15 23:09:00,74.6,68.0,30.18,NE,50,3.0,4.0,79,0.00,,,0.00,weatherlink.com 1.10,2013-07-16 03:09:00,
2013-07-15 23:24:00,74.6,67.0,30.19,ESE,107,4.0,7.0,78,0.00,,,0.00,weatherlink.com 1.10,2013-07-16 03:24:00,
2013-07-15 23:39:00,72.9,67.0,30.19,ESE,110,4.0,7.0,81,0.00,,,0.00,weatherlink.com 1.10,2013-07-16 03:39:00,
2013-07-15 23:55:00,74.3,66.0,30.19,ESE,113,5.0,8.0,76,0.00,,,0.00,weatherlink.com 1.10,2013-07-16 03:55:00,